轨道通信卫星FM106星 (ORBCOMM FM106)

导读

ORBCOMM FM 106(国际卫星标识符:2014-040C,NORAD编号:40088),属于轨道通信OG2星座,是ORBCOMM公司部署的低轨通信卫星,由美国企业联合研发,于2014年7月14日搭载猎鹰9号v1.1运载火箭,从卡纳维拉尔角太空军基地发射升空。该卫星运行在750公里近圆轨道,倾角47度,质量172kg,设计寿命5年,主要承担全球M2M通信和船舶交通监测遥感任务,为物联网、海事运输提供数据链路服务。

基本信息
目录编号:
40088
目录名称:
ORBCOMM FM 106
国际标识:
2014-040C
轨道中心:
EARTH
卫星名称:
轨道通信卫星FM106星
卫星全名:
轨道通信卫星FM106星 (ORBCOMM FM106)
卫星状态:
在轨 (已飞行4351 天)
发射日期:
2014-07-14 UTC
国别 :
(ORB)
星等 :
--
轨道信息
数据来源 国际轨道数据
星历时间: 2026-06-11T21:52:32+0800
1天前
查看轨道信息
半长轴: 7037.635km
偏心率: 0.0017043
轨道倾角: 47.061°
近地点辐角 295.942°
升交点赤经 271.608°
平近点角 63.972°
近地点: 647.503km
远地点: 671.493km
周期: 97.926分钟
每日圈数: 14.704922
详细信息
固有亮度:
8
最大亮度:
6.7
平衡模式:
三轴稳定
覆盖范围:
全球
运营商:
轨道通信公司
运营商所在国:
美国
使用方式:
暂无
卫星简介
轨道通信FM(Orbcomm FM)是一系列低地球轨道通信卫星,由美国卫星通信公司 Orbcomm运营。 截至2015年12月,已有63颗此类卫星绕地球运行。该卫星已退役。
2D轨道图
3D轨道图
轨道高度分析图
轨道倾角分析图
轨道综合分析图
查看轨道综合分析图